Aérodrome :
LOGIN :

S'inscrire | Disclaimer

   EN    FR    IT 

 










Légende :    VFR   VFR Marginal   IFR   IFR Intensif   IFR Très Intensif
Visi : 
Plafond : 
>= 8 km
>= 3000ft
5 à 8 km
1000 à 3000 ft
1500m à 5 km
500 à 1000 ft
800 à 1500m
200 à 500 ft
< 800m
< 200 ft
Symboles :   Orages  Brouillard  Fortes neiges  Fortes précipitations  Vent > 20 kt
SIGMETs :   Divers  Orages  Givrage  Turbulence  Onde Orograph.  Cendres Volcan.







- Altitude de l'aérodrome : 13 ft
- Code IATA : OST


EBOS - Oostend bruges Int.

DERNIER METAR :
  • 180950Z 07012KT CAVOK 04/M00 Q1029 NOSIG

METARs EXPIRÉS :
  • 180920Z 08011KT CAVOK 04/M00 Q1028 NOSIG
  • 180850Z 08010KT 9000 NSC 03/M01 Q1028 NOSIG
  • 180820Z 07012KT 9000 NSC 02/M01 Q1028 NOSIG
  • 180750Z 07011KT 9000 NSC 02/M01 Q1029 NOSIG
  • 180720Z 07012KT 9000 NSC 02/M02 Q1028 NOSIG

TAF TAF EBOS
Valide du 18 à 06h jusqu'au 19 à 12h UTC


180510Z 1806/1912 08013KT CAVOK
PROB40
TEMPO 1900/1906 BKN007
Pas de NOTAMs connus pour ce terrain.



MET'MAP, la Météo Aéronautique d'un coup d'oeil ! - Copyright ORBIFLY Décembre 2007 - Disclaimer

ORBIFLY MET'MAP TEAM :

Programmation & Développement : Alexandra Zaïnal
Conception & Développement : Baudouin d'Aumeries
Co-Programmation & Développement : Marc-Olivier Méhu
Soutien technique & logistique : Manuel Goepfert

Contact : metmap@orbifly.com




SOURCES & CREDITS :

   NOAA